Regional Weather Roundup
Issued by NWS Midland/Odessa, TX

Skip options and go directly to product.
Home | Oldest Version | Previous Version | Current Version | All | Graphics & Text | Save Text | Print | Product List | Glossary On

Skip product version selection by date and time.   
401
ASUS44 KMAF 272302
RWRMAF
MIDLAND AREA WEATHER ROUNDUP
NATIONAL WEATHER SERVICE MIDLAND TX
600 PM CDT WED AUG 27 2014

...IN SOUTHWEST TEXAS AND SOUTHEAST NEW MEXICO...

CITY           SKY/WX    TMP DP  RH WIND       PRES   REMARKS
ALPINE         PTSUNNY   88  49  26 NE8       30.18F
ANDREWS        PTSUNNY   94  55  26 SE12      30.04F
ARTESIA        NOT AVBL
BIG SPRING     MOSUNNY   94  58  29 E14       30.02F
CARLSBAD       MOSUNNY   86  58  38 NW6       30.06F
DRYDEN           N/A    100  57  23 E10       29.95F
FORT STOCKTON  SUNNY     95  50  21 CALM      30.02F
GUAD PASS      PTSUNNY   81  55  40 MISG      30.23F
HOBBS          PTSUNNY   86  50  28 W15       30.09S
MARFA          PTSUNNY   84  52  32 N14       30.19S
MIDLAND AIRPK  PTSUNNY   95  53  23 S5        30.02F
MIDLAND INTL   PTSUNNY   93  56  28 SE8       30.01F
ODESSA         PTSUNNY   94  53  25 SE9       30.03F
PECOS          SUNNY     97  52  22 CALM      30.00S
PRESIDIO       FAIR      99  53  21 W3        29.98F
SEMINOLE       PTSUNNY   90  52  26 S5        30.07F
SNYDER         MOSUNNY   94  61  32 SE14G21   30.00F
WINK           MOSUNNY   96  51  21 VRB3      29.99F
$$
...OTHER STATIONS IN TEXAS...

CITY           SKY/WX    TMP DP  RH WIND       PRES   REMARKS
ABILENE        MOSUNNY   96  58  27 SE13      29.97F
AMARILLO       PTSUNNY   86  61  42 SE14      30.07R
AUSTIN         MOSUNNY   96  56  26 E9        29.92F
BROWNSVILLE    SUNNY     93  72  50 NE15G22   29.85S HX 101
CORPUS CHRISTI MOSUNNY   93  71  48 NE17G30   29.87F HX 100
DALLAS FTW     MOSUNNY   92  65  40 E10       29.95F
DEL RIO        SUNNY    100  62  28 SE9       29.90F HX 101
EL PASO        PTSUNNY   85  60  42 N9        30.10F
HOUSTON INT    PTSUNNY   84  73  70 SE9       29.94F
LUBBOCK        PTSUNNY   91  54  28 S7        30.05S
SAN ANGELO     SUNNY     95  62  33 E13       29.97F
SAN ANTONIO    MOSUNNY   96  59  29 E10       29.92F
WACO           SUNNY     95  61  32 E12       29.94F
WICHITA FALLS  NOT AVBL
$$
...OTHER LOCATIONS IN NEW MEXICO...

CITY           SKY/WX    TMP DP  RH WIND       PRES   REMARKS
ALAMAGORDO     MOSUNNY   84  55  37 SE6       30.14F
ALBUQUERQUE    MOSUNNY   79  47  32 N8        30.22F
CANNON AFB     MOSUNNY   84  57  39 SW15      30.11F
CLOVIS           N/A     84  55  37 SW14G21   30.12F
HOLLOMAN AFB   MOSUNNY   86  59  40 NW1       30.11F
ROSWELL        PTSUNNY   86  59  39 SW9       30.08F
RUIDOSO        MOSUNNY   72  55  56 N3        30.33S
SANTA FE       CLOUDY    71  46  40 SW13      30.26F
TRUTH OR CONSE LGT RAIN  73  57  57 W10       30.18F
TUCUMCARI      MOSUNNY   90  54  29 SW20G26   30.05F
$$

USA.gov is the U.S. government's official web portal to all federal, state and local government web resources and services.